Powrót do katalogu

STARLINK-35646

AktywnyŁącznośćVLEO
NORAD 66859·PAYLOAD·🇺🇸 United States

Wystrzelony Dec 2, 2025 z Cape Canaveral Space Force Station

Loading…

Następne Przeloty (najbliższe 24 godziny)

TLE

ŚwieżeSource: CelesTrak SupGP

Epoka: Sep 15, 2026, 03:22 UTC

1 66859C 25281M   26258.14076389  .00040923  00000+0  14819-2 0  2583
2 66859  43.0032 353.6027 0001634 262.9439 291.7343 15.27565584    11

Śledź STARLINK-35646 w czasie rzeczywistym z AllMySat

Download on the App Store